Flag for China Weather past 2 weeks in Zhengzhou, Henan, China

Now
55 °F

Light rain. Fog.


Feels Like: 53 °F
Forecast: 57 / 62 °F
Wind: 10 mph from North

Location: Zhengzhou Airport

Current Time: Sep 17, 2014 at 1:57:23 AM

Latest Report: Sep 17, 2014 at 1:00 AM


Visibility: 3 mi

Pressure: 30.09 "Hg

Humidity: 100%

Dew point: 55 °F

Location of ZhengzhouLocation

Historic Weather in Zhengzhou — Graph

°F

Zhengzhou temperature yesterday

Maximum temperature yesterday: 61 °F (at 1:00 PM)
Minimum temperature yesterday: 55 °F (at 3:00 AM)
Average temperature yesterday: 58 °F

Past Weeks' High & Low Weather Summary

 TemperatureHumidityPressure
High88 °F (Sep 4, 2:00 PM)100% (Sep 2, 1:00 AM)30.12 "Hg (Sep 2, 1:00 AM)
Low55 °F (Sep 15, 4:00 PM)31% (Sep 4, 3:00 PM)29.71 "Hg (Sep 2, 4:00 PM)
Average70 °F84%29.89 "Hg
* Reported Midnight between Sep 1 and Sep 2 — Midnight between Sep 16 and Sep 17, Zhengzhou, Weather by CustomWeather, © 2014

Note: Actual official high and low records may vary slightly from our data, if they occured in-between our weather recording intervals... More about our weather records

Advertising

Zhengzhou weather history for previous 24 hours

 ConditionsComfort  
Time TempWeatherWind HumidityBarometerVisibility
12:00 AM
Sep 17
57 °FLight rain. Fog.8 mph100%30.09 "Hg3 mi
11:00 PM
Sep 16
57 °FLight rain. Fog.10 mph100%30.09 "Hg3 mi
10:00 PM57 °FLight rain. Fog.8 mph100%30.09 "Hg3 mi
9:00 PM57 °FLight rain. Fog.10 mph100%30.09 "Hg2 mi
8:00 PM59 °FLight rain. Fog.10 mph100%30.07 "Hg2 mi
7:00 PM59 °FLight rain. Fog.13 mph100%30.04 "Hg2 mi
6:00 PM61 °FLight rain. Fog.10 mph100%30.01 "Hg1 mi
5:00 PM61 °FLight rain. Fog.8 mph100%30.01 "Hg1 mi
4:00 PM61 °FLight rain. Fog.6 mph100%29.98 "Hg1 mi
3:00 PM61 °FLight rain. Fog.6 mph100%29.98 "Hg1 mi
2:00 PM61 °FLight rain. Fog.6 mph100%29.98 "Hg1 mi
1:00 PM61 °FLight rain. Fog.6 mph100%30.01 "Hg1 mi
12:00 PM59 °FLight rain. Fog.8 mph100%30.01 "Hg1 mi
11:00 AM59 °FLight rain. Fog.6 mph100%30.04 "Hg1 mi
10:00 AM57 °FLight rain. Fog.6 mph100%30.07 "Hg1 mi
9:00 AM57 °FLight rain. Fog.6 mph100%30.07 "Hg2 mi
8:00 AM57 °FLight rain. Fog.6 mph100%30.07 "Hg2 mi
7:00 AM55 °FLight rain. Fog.6 mph100%30.07 "Hg2 mi
6:00 AM55 °FLight rain. Fog.6 mph100%30.04 "Hg2 mi
5:00 AM55 °FLight rain. Fog.6 mph100%30.04 "Hg2 mi
4:00 AM55 °FLight rain. Fog.8 mph100%30.04 "Hg2 mi
3:00 AM55 °FLight rain. Fog.8 mph100%30.07 "Hg2 mi
2:00 AM57 °FLight rain. Fog.8 mph100%30.07 "Hg2 mi
1:00 AM57 °FLight rain. Fog.8 mph100%30.09 "Hg2 mi
Weather by CustomWeather, © 2014

See weather overviewHow to use our weather pages